This demonstration page uses our WeatherBlox Daily Observations layout. Learn more.

Left ArrowRight Arrow

Hourly Observations for May 31, 2017

Temp ( °F °C ) Dew Point ( °F °C ) Humidity (%) Winds ( mph kmh ) Pressure ( in mb ) Visibility ( mi km ) Precip ( " mm )
12:53 am 00:53 Mostly Cloudy 68 20 67 19.4 96 96 Calm 30.11 1020 10 16 0.00 0.00
1:53 am 01:53 Cloudy 68 20 67 19.4 96 96 Calm 30.11 1020 10 16 0.00 0.00
2:14 am 02:14 Cloudy with Nearby Thunderstorms 67 19.4 67 19.4 100 100 Calm 30.12 1020 10 16 0.00 0.03
2:29 am 02:29 Cloudy with Light Rain 68 20 67 19.4 96 96 S 3 6 30.12 1020 9 14 0.00 0.03
2:45 am 02:45 Cloudy with Thunderstorms 67 19.4 67 19.4 100 100 SW 5 7 30.12 1020 5 8 0.03 0.76
2:53 am 02:53 Cloudy with Thunderstorms 67 19.4 67 19.4 100 100 WSW 3 6 30.11 1020 5 8 0.05 1.27
3:02 am 03:02 Cloudy with Heavy Rain 67 19.4 67 19.4 100 100 SSW 5 7 30.12 1020 3 4 0.07 1.78
3:11 am 03:11 Cloudy with Heavy Rain 67 19.4 67 19.4 100 100 S 6 9 30.12 1020 1 2 0.28 7.11
3:18 am 03:18 Cloudy with Heavy Rain 67 19.4 67 19.4 100 100 S 8 13 30.12 1020 1 2 0.40 10.16
3:32 am 03:32 Cloudy with Light Rain 67 19.4 67 19.4 100 100 SE 9 15 30.12 1020 3 5 0.60 15.24
3:41 am 03:41 Cloudy 68 20 67 19.4 96 96 Calm 30.12 1020 10 16 0.60 15.24
3:53 am 03:53 Cloudy 67 19.4 67 19.4 100 100 Calm 30.09 1019 10 16 0.60 15.24
4:53 am 04:53 Cloudy 67 19.4 67 19.4 100 100 S 7 11 30.07 1018 10 16 0.01 0.25
5:53 am 05:53 Cloudy 67 19.4 67 19.4 100 100 WSW 3 6 30.09 1019 10 16 0.00 0.00
6:53 am 06:53 Cloudy 66 18.9 66 18.9 100 100 Calm 30.10 1019 10 16 0.00 0.00
7:53 am 07:53 Cloudy with Light Rain 67 19.4 67 19.4 100 100 Calm 30.12 1020 10 16 0.00 0.03
8:10 am 08:10 Cloudy with Light Rain 68 20 67 19.4 96 96 Calm 30.15 1021 10 16 0.00 0.03
8:53 am 08:53 Partly Cloudy 69 20.6 68 20 96 96 Calm 30.13 1020 10 16 0.00 0.03
9:53 am 09:53 Sunny 70 21.1 68 20 93 93 Calm 30.13 1020 10 16 0.00 0.00
10:53 am 10:53 Sunny 72 22.2 68 20 87 87 SW 3 6 30.12 1020 10 16 0.00 0.03
11:53 am 11:53 Sunny 76 24.4 67 19.4 74 74 W 6 9 30.12 1020 10 16 0.00 0.00
12:53 pm 12:53 Mostly Sunny 78 25.6 66 18.9 67 67 W 9 15 30.10 1019 10 16 0.00 0.00
1:53 pm 13:53 Partly Cloudy 80 26.7 66 18.9 62 62 W 6 9 30.09 1019 10 16 0.00 0.00
2:53 pm 14:53 Partly Cloudy 82 27.8 66 18.9 58 58 undefined N/A 30.07 1018 10 16 0.00 0.00
3:53 pm 15:53 Mostly Cloudy 81 27.2 65 18.3 58 58 WNW 6 9 30.06 1018 10 16 0.00 0.00
4:53 pm 16:53 Partly Cloudy 82 27.8 65 18.3 56 56 NNW 5 7 30.04 1017 10 16 0.00 0.00
5:53 pm 17:53 Sunny 82 27.8 65 18.3 56 56 WSW 6 9 30.03 1017 10 16 0.00 0.00
6:53 pm 18:53 Partly Cloudy 81 27.2 65 18.3 58 58 W 3 6 30.03 1017 10 16 0.00 0.00
7:53 pm 19:53 Sunny 80 26.7 66 18.9 62 62 WSW 6 9 30.04 1017 10 16 0.00 0.00
8:53 pm 20:53 Clear 78 25.6 67 19.4 69 69 SW 3 6 30.05 1018 10 16 0.00 0.00
9:53 pm 21:53 Clear 72 22.2 69 20.6 91 91 Calm 30.06 1018 10 16 0.00 0.00
10:53 pm 22:53 Clear 73 22.8 69 20.6 87 87 SW 3 6 30.09 1019 10 16 0.00 0.00
11:53 pm 23:53 Clear 72 22.2 69 20.6 91 91 SW 5 7 30.09 1019 10 16 0.00 0.00

Powered by AerisWeather